When you browse on this site, cookies collect data to enhance your experience and personalize the content and advertising you see.
Visit our Privacy Policy to learn more. By continuing to use the site, you agree to this use of cookies and data.
  • In United Kingdom
  • List of Countries
  • For 7 days
  • Water Temperature
  • Weather Map
  • Weather Widgets
  • user-avatar
    Login

    Hourly Weather Tsibulev

    Today, 16 October, Wednesday

    Time Temperature Precipitation Wind Pressure Humidity
    00:00 +14°C° 0 mm 2 mps 744 mmHg 65%
    01:00 +14°C° 0 mm 2 mps 744 mmHg 64%
    02:00 +13°C° 0 mm 2 mps 744 mmHg 65%
    03:00 +13°C° 0 mm 2 mps 744 mmHg 65%
    04:00 +12°C° 0 mm 2 mps 744 mmHg 65%
    05:00 +11°C° 0 mm 3 mps 744 mmHg 65%
    06:00 +12°C° 0 mm 3 mps 744 mmHg 62%
    07:00 +12°C° 0 mm 3 mps 744 mmHg 59%
    08:00 +13°C° 0 mm 3 mps 745 mmHg 55%
    09:00 +15°C° 0 mm 4 mps 745 mmHg 49%
    10:00 +18°C° 0 mm 4 mps 745 mmHg 43%
    11:00 +20°C° 0 mm 4 mps 745 mmHg 37%
    12:00 +20°C° 0 mm 4 mps 744 mmHg 35%
    13:00 +21°C° 0 mm 4 mps 744 mmHg 33%
    14:00 +22°C° 0 mm 4 mps 744 mmHg 30%
    15:00 +21°C° 0 mm 4 mps 744 mmHg 34%
    16:00 +19°C° 0 mm 3 mps 743 mmHg 37%
    17:00 +18°C° 0 mm 3 mps 743 mmHg 40%
    18:00 +17°C° 0 mm 3 mps 743 mmHg 40%
    19:00 +16°C° 0 mm 3 mps 743 mmHg 41%
    20:00 +14°C° 0 mm 3 mps 743 mmHg 42%
    21:00 +14°C° 0 mm 3 mps 743 mmHg 44%
    22:00 +13°C° 0 mm 3 mps 743 mmHg 46%
    23:00 +13°C° 0 mm 3 mps 743 mmHg 48%

    Tomorrow, 17 October, Thursday

    Time Temperature Precipitation Wind Pressure Humidity
    00:00 +12°C° 0 mm 3 mps 743 mmHg 50%
    01:00 +12°C° 0 mm 3 mps 744 mmHg 52%
    02:00 +13°C° 0 mm 2 mps 744 mmHg 55%
    03:00 +12°C° 0 mm 2 mps 743 mmHg 57%
    04:00 +12°C° 0 mm 2 mps 743 mmHg 59%
    05:00 +12°C° 0 mm 2 mps 743 mmHg 61%
    06:00 +12°C° 0 mm 2 mps 743 mmHg 60%
    07:00 +13°C° 0 mm 2 mps 743 mmHg 60%
    08:00 +13°C° 0 mm 2 mps 743 mmHg 59%
    09:00 +15°C° 0 mm 2 mps 744 mmHg 54%
    10:00 +17°C° 0 mm 2 mps 744 mmHg 48%
    11:00 +19°C° 0 mm 2 mps 744 mmHg 42%
    12:00 +20°C° 0 mm 2 mps 744 mmHg 40%
    13:00 +21°C° 0 mm 2 mps 744 mmHg 38%
    14:00 +23°C° 0 mm 2 mps 744 mmHg 36%
    15:00 +21°C° 0 mm 2 mps 743 mmHg 41%
    16:00 +20°C° 0 mm 1 mps 743 mmHg 45%
    17:00 +19°C° 0 mm 1 mps 743 mmHg 49%
    18:00 +18°C° 0 mm 1 mps 743 mmHg 52%
    19:00 +16°C° 0 mm 1 mps 743 mmHg 55%
    20:00 +15°C° 0 mm 1 mps 744 mmHg 57%
    21:00 +15°C° 0 mm 1 mps 744 mmHg 60%
    22:00 +15°C° 0 mm 1 mps 744 mmHg 63%
    23:00 +14°C° 0 mm 1 mps 744 mmHg 66%

    Day after tomorrow, 18 October, Friday

    Time Temperature Precipitation Wind Pressure Humidity
    00:00 +14°C° 0 mm 2 mps 744 mmHg 70%
    01:00 +13°C° 0 mm 2 mps 744 mmHg 74%
    02:00 +13°C° 0 mm 2 mps 744 mmHg 77%
    03:00 +13°C° 0 mm 2 mps 744 mmHg 81%
    04:00 +12°C° 0 mm 2 mps 744 mmHg 84%
    05:00 +12°C° 0 mm 2 mps 744 mmHg 88%
    06:00 +12°C° 0 mm 2 mps 744 mmHg 85%
    07:00 +13°C° 0 mm 2 mps 744 mmHg 83%
    08:00 +14°C° 0 mm 2 mps 744 mmHg 81%
    09:00 +15°C° 0 mm 2 mps 744 mmHg 73%
    10:00 +17°C° 0 mm 2 mps 745 mmHg 65%
    11:00 +19°C° 0 mm 2 mps 745 mmHg 57%
    12:00 +20°C° 0 mm 2 mps 744 mmHg 54%
    13:00 +21°C° 0 mm 1 mps 744 mmHg 50%
    14:00 +22°C° 0 mm 1 mps 744 mmHg 46%
    15:00 +21°C° 0 mm 1 mps 744 mmHg 49%
    16:00 +20°C° 0 mm 1 mps 744 mmHg 52%
    17:00 +18°C° 0 mm 2 mps 744 mmHg 55%
    18:00 +17°C° 0 mm 2 mps 744 mmHg 58%
    19:00 +16°C° 0 mm 2 mps 744 mmHg 60%
    20:00 +15°C° 0 mm 2 mps 744 mmHg 62%
    21:00 +15°C° 0 mm 2 mps 744 mmHg 65%
    22:00 +14°C° 0 mm 2 mps 744 mmHg 68%
    23:00 +14°C° 0 mm 2 mps 744 mmHg 71%

    19 October, Saturday

    Time Temperature Precipitation Wind Pressure Humidity
    00:00 +13°C° 0 mm 2 mps 744 mmHg 74%
    01:00 +13°C° 0 mm 2 mps 744 mmHg 77%
    02:00 +13°C° 0 mm 2 mps 744 mmHg 80%
    03:00 +13°C° 0 mm 2 mps 744 mmHg 81%
    04:00 +12°C° 0 mm 2 mps 744 mmHg 82%
    05:00 +12°C° 0 mm 2 mps 744 mmHg 84%
    06:00 +13°C° 0 mm 2 mps 744 mmHg 81%
    07:00 +13°C° 0 mm 2 mps 745 mmHg 78%
    08:00 +14°C° 0 mm 2 mps 745 mmHg 75%
    09:00 +16°C° 0 mm 2 mps 745 mmHg 66%
    10:00 +18°C° 0 mm 2 mps 745 mmHg 58%
    11:00 +20°C° 0 mm 3 mps 745 mmHg 49%
    12:00 +20°C° 0 mm 3 mps 745 mmHg 46%
    13:00 +21°C° 0 mm 3 mps 745 mmHg 43%
    14:00 +22°C° 0 mm 3 mps 744 mmHg 40%
    15:00 +21°C° 0 mm 2 mps 744 mmHg 44%
    16:00 +19°C° 0 mm 2 mps 744 mmHg 47%
    17:00 +18°C° 0 mm 2 mps 744 mmHg 50%
    18:00 +17°C° 0 mm 2 mps 744 mmHg 52%
    19:00 +16°C° 0 mm 2 mps 744 mmHg 54%
    20:00 +16°C° 0 mm 2 mps 745 mmHg 56%
    21:00 +15°C° 0 mm 2 mps 745 mmHg 57%
    22:00 +15°C° 0 mm 2 mps 745 mmHg 58%
    23:00 +14°C° 0 mm 2 mps 745 mmHg 60%

    20 October, Sunday

    Time Temperature Precipitation Wind Pressure Humidity
    00:00 +14°C° 0 mm 2 mps 745 mmHg 61%
    01:00 +14°C° 0 mm 2 mps 745 mmHg 62%
    02:00 +13°C° 0 mm 2 mps 745 mmHg 63%
    03:00 +13°C° 0 mm 2 mps 745 mmHg 64%
    04:00 +13°C° 0 mm 2 mps 745 mmHg 66%
    05:00 +12°C° 0 mm 2 mps 745 mmHg 67%
    06:00 +13°C° 0 mm 2 mps 745 mmHg 66%
    07:00 +12°C° 0 mm 3 mps 746 mmHg 65%
    08:00 +13°C° 0 mm 3 mps 746 mmHg 63%
    09:00 +16°C° 0 mm 3 mps 746 mmHg 57%
    10:00 +18°C° 0 mm 3 mps 746 mmHg 51%
    11:00 +20°C° 0 mm 4 mps 746 mmHg 45%
    12:00 +21°C° 0 mm 4 mps 746 mmHg 43%
    13:00 +21°C° 0 mm 4 mps 746 mmHg 40%
    14:00 +22°C° 0 mm 4 mps 746 mmHg 38%
    15:00 +21°C° 0 mm 3 mps 746 mmHg 41%
    16:00 +19°C° 0 mm 3 mps 746 mmHg 45%
    17:00 +18°C° 0 mm 2 mps 745 mmHg 48%
    18:00 +17°C° 0 mm 2 mps 746 mmHg 49%
    19:00 +16°C° 0 mm 2 mps 746 mmHg 51%
    20:00 +16°C° 0 mm 2 mps 746 mmHg 52%
    21:00 +14°C° 0 mm 3 mps 747 mmHg 53%
    22:00 +14°C° 0 mm 3 mps 747 mmHg 55%
    23:00 +13°C° 0 mm 3 mps 747 mmHg 56%

    21 October, Monday

    Time Temperature Precipitation Wind Pressure Humidity
    00:00 +13°C° 0 mm 3 mps 747 mmHg 57%
    01:00 +13°C° 0 mm 2 mps 747 mmHg 59%
    02:00 +13°C° 0 mm 2 mps 747 mmHg 61%
    03:00 +12°C° 0 mm 2 mps 747 mmHg 64%
    04:00 +12°C° 0 mm 2 mps 747 mmHg 66%
    05:00 +12°C° 0 mm 2 mps 747 mmHg 68%
    06:00 +12°C° 0 mm 2 mps 747 mmHg 67%
    07:00 +12°C° 0 mm 3 mps 747 mmHg 66%
    08:00 +12°C° 0 mm 3 mps 748 mmHg 64%
    09:00 +14°C° 0 mm 3 mps 748 mmHg 57%
    10:00 +17°C° 0 mm 3 mps 748 mmHg 50%
    11:00 +20°C° 0 mm 3 mps 748 mmHg 44%
    12:00 +20°C° 0 mm 3 mps 748 mmHg 41%
    13:00 +21°C° 0 mm 3 mps 748 mmHg 38%
    14:00 +22°C° 0 mm 3 mps 748 mmHg 35%
    15:00 +20°C° 0 mm 3 mps 747 mmHg 39%
    16:00 +19°C° 0 mm 2 mps 747 mmHg 42%
    17:00 +17°C° 0 mm 2 mps 747 mmHg 46%
    18:00 +17°C° 0 mm 2 mps 747 mmHg 47%
    19:00 +16°C° 0 mm 1 mps 747 mmHg 49%
    20:00 +15°C° 0 mm 1 mps 747 mmHg 51%
    21:00 +15°C° 0 mm 1 mps 747 mmHg 52%
    22:00 +14°C° 0 mm 1 mps 747 mmHg 54%
    23:00 +14°C° 0 mm 1 mps 747 mmHg 55%
    Show more